STARLINK-11588, 63319

Orbit data source: Space-Track

STARLINK-11588, 63319 is a payload satellite owned by SpaceX/Seattle (US) in LEO that was launched on Tue, 18 Mar 2025 UTC via an FALCON 9 launch vehicle from the Air Force Eastern Test Range (AFETR). Payload-class satellites include a variety of spacecraft equipped with specific instruments for various scientific and technological missions. These include communications satellites like Starlink; space stations such as the ISS; scientific satellites like the Hubble; Earth observation satellites from companies like Planet Labs, Umbra, and HawkEye 360; GPS; miniature CubeSats for education and research; and military/defense satellites.

Loading next visibility...
Identifier
63319, 2025-057N
Orbit
LEO
Country
Flag of USUS
Related business
Manufacturer
SpaceX/Seattle
Mission
Operational Commercial Communications
Bus & Motor
STARLINK V2MD, Unknown motor
Mass
960 kg wet, ~910 kg dry
Launch date (UTC)
2025-03-18 (9 months ago)
Launch vehicle
FALCON 9
Launch site
Air Force Eastern Test Range (AFETR)
Object type
Payload
Rocket body
Debris
Shape & HBR
Box + 2 Pan, 18.1 m
Radar Cross Section
36.964 m², Large (>1 m²)

Expand to show TLE details & history
Last TLE update: 22 hours ago

TLE from 22 hours ago
0 STARLINK-11588
1 63319U 25057N   25346.35741696  .00385382  00000-0  28756-2 0  9991
2 63319  43.0004  70.8369 0004790 292.3411  67.6949 15.70786768 43441
Epoch: 2025-12-12T08:34Z
TLE epoch observation values (Epoch: 2025-12-12T08:34:40.825Z)
Latitude
0.00001°
Longitude
-139.13339°
Altitude
355.196 km
Speed
7.699 km/s
True Right ascension
04h 43m 20s
True Declination
0° 00' 00"
Sunlit
Object was in full shadow at epoch
Visualization orbit readout
Latitude
Unknown
Longitude
Unknown
Altitude
Unknown
Speed
Unknown
Apparent Right ascension
Unknown
Apparent Declination
Unknown
Sunlit
N/A
Visualization observer readout
Local Sidereal Time
05:23:39
Azimuth
Unknown
Elevation
Unknown
Doppler factor
Unknown
Orbital elements
Apogee altitude
361.856 km
Perigee altitude
355.402 km
Semi-major axis
6,736.766 km
Eccentricity
0.00048
Inclination
43.0004°
RAAN
70.8369°
Arg. of periapsis
292.3411°
True anomaly
67.74569°
Mean anomaly
67.6949°
Eccentric anomaly
67.7203°
Mean motion
3.92524 °/min
Orbital period
91.71 mins
BSTAR
0.0028756
Loading maneuver chart data...
Computing Atmospheric mass density...
Loading historical data...
Loading historical data...
Loading historical data...
Loading historical data...
Loading historical data...
Loading historical data...
Loading historical data...

Documentation

Showing up to 5 results
|